Date String (YYYY-MM-DD hh:mm:ss) UTC,Instrument flags,Ambient pressure (hPa),Sample flow (lpm),Bypass flow (lpm),Sample temperature (°C),Ambient temperature (°C),ASC tube jacket temperature (°C),LED temperature (°C),Box temperature (°C),Sample RH (%),Span deviation,Mass concentration (μg/m³),Mass concentration (μg/m³),Mass concentration (μg/m³)
DateTimeUTC,F1_M11,P_M11,Q1_M11,Q2_M11,T1_M11,T2_M11,T3_M11,T4_M11,T5_M11,U1_M11,ZSPAN_M11,X0_M11,X2_M11,X1_M11
2022-09-13 05:00:00,,0827.2,5.00,0.00,30.2,28.7,00.0,38.9,32.0,11.7,-000.9,0016.88,0009.84,0009.09
2022-09-13 05:01:00,,0827.2,5.00,0.00,30.2,28.8,00.0,38.9,32.0,11.7,-000.7,0017.93,0009.83,0009.10
2022-09-13 05:02:00,,0827.2,4.98,0.00,30.2,28.8,00.0,38.9,32.0,11.8,-000.7,0018.45,0009.85,0009.09
2022-09-13 05:03:00,,0827.2,5.00,0.00,30.2,28.8,00.0,39.0,32.0,11.6,-000.6,0017.77,0009.90,0009.09
2022-09-13 05:04:00,,0827.2,5.00,0.00,30.2,28.8,00.0,39.0,32.0,11.8,-000.7,0017.90,0009.89,0009.07
2022-09-13 05:05:00,,0827.2,5.02,0.00,30.2,28.8,00.0,39.0,32.1,11.8,-000.6,0017.33,0009.86,0009.08
2022-09-13 05:06:00,,0827.2,5.00,0.00,30.2,28.9,00.0,39.0,32.1,11.6,0000.0,0016.98,0009.88,0009.08
2022-09-13 05:07:00,,0827.2,4.98,0.00,30.2,28.9,00.0,39.0,32.1,11.7,0000.6,0016.60,0009.91,0009.08
2022-09-13 05:08:00,,0827.1,5.01,0.00,30.3,28.9,00.0,39.0,32.1,11.8,0000.5,0016.48,0009.97,0009.13
2022-09-13 05:09:00,,0827.1,5.00,0.00,30.3,28.9,00.0,39.0,32.1,11.5,0001.1,0017.08,0010.01,0009.15
2022-09-13 05:10:00,,0827.1,5.00,0.00,30.3,28.9,00.0,39.0,32.1,11.6,0001.2,0018.25,0010.01,0009.18
2022-09-13 05:11:00,,0827.1,5.00,0.00,30.3,28.9,00.0,39.0,32.1,11.5,0002.2,0018.54,0010.10,0009.21
2022-09-13 05:12:00,,0827.1,5.00,0.00,30.3,28.9,00.0,39.0,32.1,11.5,0001.5,0018.71,0010.16,0009.24
2022-09-13 05:13:00,,0827.1,5.00,0.00,30.3,28.9,00.0,39.1,32.1,11.4,0001.2,0019.18,0010.22,0009.27
2022-09-13 05:14:00,,0827.1,5.00,0.00,30.3,28.9,00.0,39.1,32.1,11.8,0001.2,0020.25,0010.24,0009.31
2022-09-13 05:15:00,,0827.1,5.00,0.00,30.3,28.9,00.0,39.1,32.1,11.9,0001.6,0020.49,0010.25,0009.34
2022-09-13 05:16:00,,0827.1,5.00,0.00,30.3,28.9,00.0,39.1,32.1,11.5,0002.3,0020.75,0010.27,0009.35
2022-09-13 05:17:00,,0827.0,5.00,0.00,30.3,28.9,00.0,39.1,32.1,11.7,0002.0,0021.15,0010.25,0009.34
2022-09-13 05:18:00,,0827.0,5.00,0.00,30.3,29.0,00.0,39.1,32.1,11.4,0001.6,0021.27,0010.22,0009.32
2022-09-13 05:19:00,,0827.0,4.99,0.00,30.4,28.9,00.0,39.1,32.1,11.3,0001.9,0021.00,0010.13,0009.29
2022-09-13 05:20:00,,0827.2,5.00,0.00,30.3,28.9,00.0,39.1,32.1,11.5,0001.8,0020.40,0010.06,0009.26
2022-09-13 05:21:00,,0827.2,5.00,0.00,30.4,28.9,00.0,39.1,32.2,11.4,0002.2,0019.12,0009.97,0009.22
2022-09-13 05:22:00,,0827.2,4.99,0.00,30.4,28.9,00.0,39.1,32.2,11.3,0002.2,0018.76,0009.91,0009.19
2022-09-13 05:23:00,,0827.2,4.99,0.00,30.4,28.9,00.0,39.1,32.2,11.4,0003.0,0017.50,0009.85,0009.16
2022-09-13 05:24:00,,0827.1,5.00,0.00,30.4,28.9,00.0,39.1,32.2,11.4,0003.1,0016.56,0009.74,0009.13
2022-09-13 05:25:00,,0827.1,5.01,0.00,30.4,28.9,00.0,39.1,32.2,11.6,0002.8,0015.92,0009.70,0009.11
2022-09-13 05:26:00,,0827.1,5.00,0.00,30.4,28.9,00.0,39.1,32.2,11.6,0002.8,0015.74,0009.67,0009.11
2022-09-13 05:27:00,,0827.2,5.00,0.00,30.4,28.9,00.0,39.2,32.2,11.7,0002.8,0015.72,0009.64,0009.11
2022-09-13 05:28:00,,0827.1,5.00,0.00,30.4,28.9,00.0,39.2,32.2,11.8,0003.1,0015.41,0009.66,0009.12
2022-09-13 05:29:00,,0827.2,4.99,0.00,30.4,28.9,00.0,39.2,32.2,11.7,0002.3,0015.23,0009.65,0009.13
2022-09-13 05:30:00,,0827.2,5.00,0.00,30.4,28.9,00.0,39.2,32.2,11.6,0001.7,0015.86,0009.65,0009.12
2022-09-13 05:31:00,,0827.1,5.00,0.00,30.4,28.9,00.0,39.2,32.2,11.5,0001.4,0016.68,0009.69,0009.12
2022-09-13 05:32:00,,0827.1,5.00,0.00,30.4,28.9,00.0,39.2,32.2,11.1,0001.3,0016.62,0009.74,0009.15
2022-09-13 05:33:00,,0827.1,5.00,0.00,30.4,28.9,00.0,39.2,32.1,11.1,0000.8,0016.49,0009.73,0009.15
2022-09-13 05:34:00,,0827.1,5.00,0.00,30.4,28.9,00.0,39.2,32.2,11.0,0000.6,0017.42,0009.72,0009.16
2022-09-13 05:35:00,,0827.2,5.00,0.00,30.4,28.9,00.0,39.2,32.2,11.0,0000.1,0018.33,0009.73,0009.17
2022-09-13 05:36:00,,0827.2,5.00,0.00,30.4,28.9,00.0,39.2,32.2,11.0,0000.7,0018.14,0009.74,0009.15
2022-09-13 05:37:00,,0827.2,5.00,0.00,30.4,28.9,00.0,39.2,32.2,10.8,0001.2,0018.04,0009.74,0009.16
2022-09-13 05:38:00,,0827.2,5.00,0.00,30.4,28.8,00.0,39.2,32.1,11.1,0001.0,0017.76,0009.75,0009.17
2022-09-13 05:39:00,,0827.2,5.00,0.00,30.4,28.9,00.0,39.2,32.1,11.5,0000.7,0017.52,0009.70,0009.14
2022-09-13 05:40:00,,0827.2,5.00,0.00,30.4,28.9,00.0,39.2,32.1,10.8,0001.3,0017.41,0009.67,0009.11
2022-09-13 05:41:00,,0827.2,5.00,0.00,30.4,28.9,00.0,39.2,32.2,10.7,0002.1,0016.93,0009.66,0009.09
2022-09-13 05:42:00,,0827.1,5.00,0.00,30.4,28.9,00.0,39.2,32.1,10.8,0002.4,0015.86,0009.63,0009.08
2022-09-13 05:43:00,,0827.2,5.00,0.00,30.4,28.9,00.0,39.2,32.2,10.8,0002.3,0015.74,0009.60,0009.03
2022-09-13 05:44:00,,0827.1,4.99,0.00,30.4,28.9,00.0,39.2,32.2,10.8,0002.1,0015.78,0009.57,0009.02
2022-09-13 05:45:00,,0827.1,5.02,0.00,30.4,28.9,00.0,39.2,32.2,10.7,0002.1,0015.19,0009.55,0008.97
2022-09-13 05:46:00,,0827.1,5.00,0.00,30.4,28.9,00.0,39.2,32.2,10.7,0001.8,0014.35,0009.53,0008.94
2022-09-13 05:47:00,,0827.1,5.00,0.00,30.4,28.9,00.0,39.2,32.2,10.4,0002.4,0013.77,0009.50,0008.92
2022-09-13 05:48:00,,0827.2,5.01,0.00,30.4,28.9,00.0,39.2,32.2,10.3,0001.5,0013.74,0009.49,0008.89
2022-09-13 05:49:00,,0827.1,5.00,0.00,30.4,28.9,00.0,39.2,32.2,10.3,0001.5,0013.68,0009.48,0008.88
2022-09-13 05:50:00,,0827.1,5.00,0.00,30.4,28.9,00.0,39.2,32.2,10.3,0001.5,0013.72,0009.49,0008.87
2022-09-13 05:51:00,,0827.1,5.00,0.00,30.4,28.9,00.0,39.2,32.2,10.4,0001.6,0014.51,0009.50,0008.87
2022-09-13 05:52:00,,0827.1,4.99,0.00,30.4,28.9,00.0,39.2,32.2,10.1,0001.6,0014.59,0009.48,0008.86
2022-09-13 05:53:00,,0827.1,5.00,0.00,30.4,28.9,00.0,39.2,32.2,10.2,0001.7,0015.08,0009.49,0008.86
2022-09-13 05:54:00,,0827.1,5.00,0.00,30.4,28.9,00.0,39.2,32.2,10.5,0002.1,0015.15,0009.47,0008.87
2022-09-13 05:55:00,,0827.1,4.99,0.00,30.4,29.0,00.0,39.2,32.2,10.0,0002.1,0015.00,0009.45,0008.87
2022-09-13 05:56:00,,0827.1,5.00,0.00,30.4,28.9,00.0,39.2,32.2,10.0,0002.0,0014.95,0009.44,0008.87
2022-09-13 05:57:00,,0827.2,5.01,0.00,30.4,28.9,00.0,39.2,32.2,10.0,0002.6,0014.68,0009.44,0008.87
2022-09-13 05:58:00,,0827.2,5.01,0.00,30.5,29.0,00.0,39.2,32.2,10.2,0002.2,0014.74,0009.44,0008.86
2022-09-13 05:59:00,,0827.2,5.01,0.00,30.5,29.0,00.0,39.2,32.2,10.2,0002.5,0015.05,0009.45,0008.85
